VU36VU-13 Weather Reports


time (UTC)temp
F
wind
direction
speed
knots
gust
knots
rain 1hr
in
rain 24hr
in
rain mn
in
humidity
%
barometer
mb
20260509013617 71 69 10.4 26.9 0.00 0.12 0.02 88 1012.0
20260509013417 71 69 10.4 26.9 0.00 0.12 0.02 88 1012.0
20260509013217 71 69 10.4 26.9 0.00 0.12 0.02 88 1012.0
20260509013020 71 69 10.4 26.9 0.00 0.12 0.02 88 1012.0
20260509012817 70 66 10.4 26.1 0.00 0.12 0.02 91 1012.0
20260509012617 70 66 10.4 26.1 0.00 0.12 0.02 91 1012.0
20260509012418 70 66 10.4 26.1 0.00 0.12 0.02 91 1012.0
20260509012018 70 66 10.4 26.1 0.00 0.12 0.02 91 1012.0
20260509011817 70 66 10.4 26.1 0.00 0.12 0.02 91 1012.0
20260509011617 70 66 10.4 26.1 0.00 0.12 0.02 91 1012.0
20260509011417 70 61 11.3 26.1 0.00 0.12 0.02 93 1011.0
20260509011217 70 61 11.3 26.1 0.00 0.12 0.02 93 1011.0
20260509011018 70 61 11.3 26.1 0.00 0.12 0.02 93 1011.0
20260509010817 70 61 11.3 26.1 0.00 0.12 0.02 93 1011.0
20260509010617 70 61 11.3 26.1 0.00 0.12 0.02 93 1011.0
20260509010417 70 61 11.3 26.1 0.00 0.12 0.02 93 1011.0
20260509010219 70 61 11.3 26.1 0.00 0.12 0.02 93 1011.0
20260509005817 69 58 11.3 26.1 0.00 0.12 0.02 94 1011.0
20260509005617 69 58 11.3 26.1 0.00 0.12 0.02 94 1011.0
20260509005417 69 58 11.3 26.1 0.00 0.12 0.02 94 1011.0
20260509005217 69 58 11.3 26.1 0.00 0.12 0.02 94 1011.0
20260509005018 69 58 11.3 26.1 0.00 0.12 0.02 94 1011.0
20260509004817 69 58 11.3 26.1 0.00 0.12 0.02 94 1011.0
20260509004617 69 58 11.3 26.1 0.00 0.12 0.02 94 1011.0
20260509004417 69 55 11.3 26.1 0.00 0.12 0.02 95 1011.0
20260509004217 69 55 11.3 26.1 0.00 0.12 0.02 95 1011.0
20260509003817 69 55 11.3 26.1 0.00 0.12 0.02 95 1011.0
20260509003617 69 55 11.3 26.1 0.00 0.12 0.02 95 1011.0
20260509003417 69 55 11.3 26.1 0.00 0.12 0.02 95 1011.0
20260509003217 69 55 11.3 26.1 0.00 0.12 0.02 95 1011.0
20260509003020 69 55 11.3 26.1 0.00 0.12 0.02 95 1011.0
20260509002817 69 51 11.3 26.1 0.00 0.12 0.02 95 1011.0
20260509002617 69 51 11.3 26.1 0.00 0.12 0.02 95 1011.0
20260509002417 69 51 11.3 26.1 0.00 0.12 0.02 95 1011.0
20260509002217 69 51 11.3 26.1 0.00 0.12 0.02 95 1011.0
20260509002018 69 51 11.3 26.1 0.00 0.12 0.02 95 1011.0
20260509001617 69 51 11.3 26.1 0.00 0.12 0.02 95 1011.0
20260509001417 69 50 11.3 26.1 0.00 0.12 0.02 95 1011.0
20260509001217 69 50 11.3 26.1 0.00 0.12 0.02 95 1011.0
20260509001018 69 75 8.7 26.1 0.00 0.12 0.02 95 1011.0
20260509000817 69 75 8.7 26.1 0.00 0.12 0.02 95 1011.0
20260509000617 69 77 10.4 26.1 0.00 0.12 0.02 95 1011.0
20260509000418 69 77 10.4 22.6 0.00 0.12 0.02 95 1011.0
20260509000219 69 77 10.4 22.6 0.00 0.12 0.02 95 1011.0
20260509000022 70 78 10.4 21.7 0.00 0.12 0.02 93 1011.0
20260508235617 70 78 10.4 21.7 0.00 0.12 0.02 93 1011.0
20260508235417 70 78 10.4 21.7 0.00 0.12 0.02 93 1011.0
20260508235217 70 78 10.4 21.7 0.00 0.12 0.02 93 1011.0
20260508235018 70 78 10.4 21.7 0.00 0.12 0.02 93 1011.0
20260508234817 70 78 10.4 21.7 0.00 0.12 0.02 93 1010.0
20260508234617 70 78 10.4 21.7 0.00 0.12 0.05 93 1010.0
20260508234417 70 78 9.6 20.0 0.00 0.12 0.05 90 1010.0
20260508234217 70 78 9.6 20.0 0.00 0.12 0.05 90 1010.0
20260508234018 70 78 9.6 20.0 0.00 0.12 0.05 90 1010.0
20260508233617 70 78 9.6 20.0 0.00 0.12 0.05 90 1010.0
20260508233417 70 78 9.6 20.0 0.00 0.12 0.05 90 1010.0
20260508233217 70 78 9.6 20.0 0.00 0.12 0.05 90 1010.0
20260508233021 70 78 9.6 20.0 0.00 0.12 0.05 90 1010.0
20260508232817 70 77 8.7 19.1 0.00 0.12 0.05 89 1010.0
20260508232617 70 77 8.7 19.1 0.00 0.12 0.05 89 1010.0
20260508232417 70 77 8.7 19.1 0.00 0.12 0.05 89 1010.0
20260508232217 70 77 8.7 19.1 0.00 0.12 0.05 89 1010.0
20260508232018 70 77 8.7 19.1 0.00 0.12 0.05 89 1010.0
20260508231818 70 77 8.7 19.1 0.00 0.12 0.05 89 1010.0
20260508231417 70 76 8.7 18.2 0.00 0.12 0.05 89 1010.0
20260508231217 70 76 8.7 18.2 0.00 0.12 0.05 89 1010.0
20260508231018 70 76 8.7 18.2 0.00 0.12 0.05 89 1010.0
20260508230817 70 76 8.7 18.2 0.00 0.12 0.05 89 1010.0
20260508230617 70 76 8.7 18.2 0.00 0.12 0.05 89 1010.0
20260508230417 70 76 8.7 18.2 0.00 0.12 0.05 89 1010.0
20260508230217 70 76 8.7 18.2 0.00 0.12 0.05 89 1010.0
20260508230022 70 74 7.8 18.2 0.00 0.12 0.05 88 1010.0
20260508225818 70 74 7.8 18.2 0.00 0.12 0.05 88 1010.0
20260508225417 70 74 7.8 18.2 0.00 0.12 0.05 88 1010.0
20260508225217 70 74 7.8 18.2 0.00 0.12 0.05 88 1010.0
20260508225018 70 74 7.8 18.2 0.00 0.12 0.05 88 1010.0
20260508224817 70 74 7.8 18.2 0.00 0.12 0.05 88 1010.0
20260508224618 70 74 7.8 18.2 0.00 0.12 0.05 88 1010.0
20260508224417 70 70 7.0 18.2 0.00 0.12 0.05 88 1010.0
20260508224217 70 70 7.0 18.2 0.00 0.12 0.05 88 1010.0
20260508224018 70 70 7.0 18.2 0.00 0.12 0.05 88 1010.0
20260508223817 70 70 7.0 18.2 0.00 0.12 0.05 88 1010.0
20260508223618 70 70 7.0 18.2 0.00 0.12 0.05 88 1010.0
20260508223217 70 70 7.0 18.2 0.00 0.12 0.05 88 1010.0
20260508223022 70 70 7.0 18.2 0.00 0.12 0.05 88 1010.0
20260508222817 70 67 6.1 19.1 0.00 0.12 0.05 88 1010.0
20260508222617 70 67 6.1 19.1 0.00 0.12 0.05 88 1010.0
20260508222417 70 67 6.1 19.1 0.00 0.12 0.05 88 1010.0
20260508222217 70 67 6.1 19.1 0.00 0.12 0.05 88 1010.0
20260508222018 70 67 6.1 19.1 0.00 0.12 0.05 88 1010.0
20260508221818 70 67 6.1 19.1 0.00 0.12 0.05 88 1010.0
20260508221617 70 67 6.1 19.1 0.00 0.12 0.05 88 1010.0
20260508221217 71 69 5.2 20.0 0.00 0.12 0.05 88 1010.0
20260508221018 71 69 5.2 20.0 0.00 0.12 0.05 88 1010.0
20260508220817 71 69 5.2 20.0 0.00 0.12 0.05 88 1010.0
20260508220618 71 69 5.2 20.0 0.00 0.12 0.05 88 1010.0
20260508220417 71 69 5.2 20.0 0.00 0.12 0.05 88 1010.0
20260508220217 71 69 5.2 20.0 0.00 0.12 0.05 88 1010.0
20260508220022 71 81 5.2 21.7 0.00 0.12 0.05 87 1010.0
20260508215817 71 81 5.2 21.7 0.00 0.12 0.05 87 1010.0
20260508215617 71 81 5.2 21.7 0.00 0.12 0.05 87 1010.0
20260508215417 71 81 5.2 21.7 0.00 0.12 0.05 87 1010.0
20260508215018 71 81 5.2 21.7 0.00 0.12 0.05 87 1010.0
20260508214817 71 81 5.2 21.7 0.00 0.12 0.05 87 1010.0
20260508214617 71 81 5.2 21.7 0.00 0.12 0.05 87 1010.0
20260508214417 71 95 6.1 23.5 0.00 0.12 0.05 86 1010.0
20260508214217 71 95 6.1 23.5 0.00 0.12 0.05 86 1010.0
20260508214019 71 95 6.1 23.5 0.00 0.12 0.05 86 1010.0
20260508213817 71 95 6.1 23.5 0.00 0.12 0.05 86 1010.0
20260508213617 71 95 6.1 23.5 0.00 0.12 0.05 86 1010.0
20260508213417 71 95 6.1 23.5 0.00 0.12 0.05 86 1010.0
20260508213218 71 95 6.1 23.5 0.00 0.12 0.05 86 1010.0
20260508212220 71 105 7.8 26.1 0.00 0.12 0.05 86 1010.0
20260508212018 71 105 7.8 26.1 0.00 0.12 0.05 86 1010.0
20260508211817 71 105 7.8 26.1 0.00 0.12 0.05 86 1010.0
20260508211417 71 111 8.7 27.8 0.00 0.12 0.05 85 1010.0
20260508211217 71 111 8.7 27.8 0.00 0.12 0.05 85 1010.0
20260508211018 71 111 8.7 27.8 0.00 0.12 0.05 85 1010.0
20260508210817 71 111 8.7 27.8 0.00 0.12 0.05 85 1010.0
20260508210618 71 111 8.7 27.8 0.00 0.12 0.05 85 1010.0
20260508210417 71 111 8.7 27.8 0.00 0.12 0.05 85 1010.0
20260508210217 71 111 8.7 27.8 0.00 0.12 0.05 85 1010.0
20260508210022 72 111 10.4 29.5 0.00 0.12 0.05 84 1010.0
20260508205817 72 111 10.4 29.5 0.00 0.12 0.05 84 1010.0
20260508205618 72 111 10.4 29.5 0.00 0.12 0.05 84 1010.0
20260508205217 72 111 10.4 29.5 0.00 0.12 0.05 84 1010.0
20260508205018 72 111 10.4 29.5 0.00 0.12 0.05 84 1010.0
20260508204817 72 111 10.4 29.5 0.00 0.12 0.05 84 1010.0
20260508204617 72 111 10.4 29.5 0.00 0.12 0.05 84 1010.0
20260508204417 72 109 11.3 31.3 0.00 0.12 0.05 83 1010.0
20260508204217 72 109 11.3 31.3 0.00 0.12 0.05 83 1010.0
20260508204018 72 109 11.3 31.3 0.00 0.12 0.05 83 1010.0
20260508203817 72 109 11.3 31.3 0.00 0.12 0.05 83 1010.0
20260508203617 72 109 11.3 31.3 0.00 0.12 0.05 83 1010.0
20260508203217 72 109 11.3 31.3 0.00 0.12 0.05 83 1010.0
20260508203022 72 109 11.3 31.3 0.00 0.12 0.05 83 1010.0
20260508202818 72 107 11.3 33.0 0.00 0.12 0.05 82 1011.0
20260508202618 72 107 11.3 33.0 0.00 0.12 0.05 82 1011.0
20260508202417 72 107 11.3 33.0 0.00 0.12 0.05 82 1011.0
20260508202218 72 107 11.3 33.0 0.00 0.12 0.05 82 1011.0
20260508202018 72 107 11.3 33.0 0.00 0.12 0.05 82 1011.0
20260508201817 72 107 11.3 33.0 0.00 0.12 0.05 82 1011.0
20260508201618 72 107 11.3 33.0 0.00 0.12 0.05 82 1011.0
20260508201418 72 105 12.2 33.9 0.00 0.12 0.05 81 1011.0
20260508201019 72 105 12.2 33.9 0.00 0.12 0.05 81 1011.0
20260508200817 72 105 12.2 33.9 0.00 0.12 0.05 81 1011.0
20260508200617 72 105 12.2 33.9 0.00 0.12 0.05 81 1011.0
20260508200418 72 105 12.2 33.9 0.00 0.12 0.05 81 1011.0
20260508200218 72 105 12.2 33.9 0.00 0.12 0.05 81 1011.0
20260508200022 73 106 13.0 35.6 0.00 0.12 0.05 80 1011.0
20260508195817 73 106 13.0 35.6 0.00 0.12 0.05 80 1011.0
20260508195618 73 106 13.0 35.6 0.00 0.12 0.05 80 1011.0
20260508195418 73 106 13.0 35.6 0.00 0.12 0.05 80 1011.0
20260508195018 73 106 13.0 35.6 0.00 0.12 0.05 80 1011.0
20260508194817 73 106 13.0 35.6 0.00 0.12 0.05 80 1011.0
20260508194617 73 106 13.0 35.6 0.00 0.12 0.05 80 1011.0
20260508194417 73 106 13.9 35.6 0.00 0.12 0.05 79 1011.0
20260508194217 73 106 13.9 35.6 0.00 0.12 0.05 79 1011.0
20260508194019 73 106 13.9 35.6 0.00 0.12 0.05 79 1011.0
20260508193817 73 106 13.9 35.6 0.00 0.12 0.05 79 1011.0
20260508193617 73 106 13.9 35.6 0.00 0.12 0.05 79 1011.0
20260508193417 73 106 13.9 35.6 0.00 0.12 0.05 79 1011.0
20260508193022 73 106 13.9 35.6 0.00 0.12 0.05 79 1011.0
20260508192817 73 106 14.8 36.5 0.00 0.12 0.05 78 1011.0
20260508192617 73 106 14.8 36.5 0.00 0.12 0.05 78 1011.0
20260508192417 73 106 14.8 36.5 0.00 0.12 0.05 78 1011.0
20260508192217 73 106 14.8 36.5 0.00 0.12 0.05 78 1011.0
20260508192018 73 106 14.8 36.5 0.00 0.12 0.05 78 1011.0
20260508191817 73 106 14.8 36.5 0.00 0.12 0.05 78 1011.0
20260508191617 73 106 14.8 36.5 0.00 0.12 0.05 78 1011.0
20260508191417 73 107 15.6 37.4 0.00 0.12 0.05 78 1011.0
20260508191218 73 107 15.6 37.4 0.00 0.12 0.05 78 1011.0
20260508190818 73 107 15.6 37.4 0.00 0.12 0.05 78 1011.0
20260508190617 73 107 15.6 37.4 0.00 0.12 0.05 78 1011.0
20260508190417 73 107 15.6 37.4 0.00 0.12 0.05 78 1011.0
20260508190217 73 107 15.6 37.4 0.00 0.12 0.05 78 1011.0
20260508190022 74 103 15.6 38.2 0.00 0.34 0.04 77 1011.0
20260508185817 74 103 15.6 38.2 0.00 0.34 0.04 77 1011.0
20260508185617 74 103 15.6 38.2 0.00 0.34 0.04 77 1011.0
20260508185417 74 103 15.6 38.2 0.00 0.34 0.04 77 1011.0
20260508185217 74 102 17.4 38.2 0.00 0.34 0.04 77 1011.0
20260508185019 74 102 17.4 38.2 0.00 0.34 0.04 77 1011.0
20260508184618 74 102 17.4 38.2 0.00 0.34 0.04 77 1011.0
20260508184417 74 103 17.4 37.4 0.00 0.34 0.04 76 1011.0
20260508184217 74 103 17.4 37.4 0.00 0.34 0.04 76 1011.0
20260508184018 74 103 17.4 37.4 0.00 0.34 0.04 76 1011.0
20260508183817 74 103 17.4 37.4 0.00 0.34 0.04 76 1011.0
20260508183618 74 103 17.4 37.4 0.00 0.34 0.04 76 1011.0
20260508183417 74 103 17.4 37.4 0.00 0.34 0.04 76 1011.0
20260508183217 74 103 17.4 37.4 0.00 0.34 0.04 76 1011.0
20260508183022 74 103 17.4 37.4 0.00 0.34 0.04 76 1011.0
20260508182818 75 104 16.5 36.5 0.00 0.34 0.04 75 1011.0
20260508182417 75 104 16.5 36.5 0.00 0.21 0.04 75 1012.0
20260508182218 75 104 16.5 36.5 0.00 0.21 0.04 78 1012.0
20260508182019 75 104 16.5 36.5 0.00 0.21 0.04 78 1012.0
20260508181818 75 104 16.5 36.5 0.00 0.21 0.04 78 1012.0
20260508181618 75 104 16.5 36.5 0.00 0.21 0.04 78 1012.0
20260508181418 75 106 16.5 35.6 0.00 0.21 0.04 77 1012.0
20260508181217 75 106 16.5 35.6 0.00 0.21 0.04 77 1012.0
20260508181018 75 106 16.5 35.6 0.00 0.21 0.04 77 1012.0
20260508180818 75 106 16.5 35.6 0.00 0.21 0.04 77 1012.0
20260508180418 75 106 16.5 35.6 0.00 0.21 0.04 77 1012.0
20260508180218 75 106 16.5 35.6 0.00 0.21 0.04 77 1012.0
20260508180022 75 107 16.5 35.6 0.00 0.21 0.04 76 1012.0
20260508175818 75 107 16.5 35.6 0.00 0.21 0.04 76 1012.0
20260508175618 75 107 16.5 35.6 0.00 0.21 0.04 76 1012.0
20260508175418 75 107 16.5 35.6 0.00 0.21 0.04 76 1012.0
20260508175218 75 107 16.5 35.6 0.00 0.21 0.04 76 1012.0
20260508175018 75 107 16.5 35.6 0.00 0.21 0.04 76 1012.0
20260508174818 75 107 16.5 35.6 0.00 0.21 0.04 76 1012.0
20260508174418 75 107 16.5 35.6 0.00 0.21 0.04 76 1012.0
20260508174218 75 107 16.5 35.6 0.00 0.21 0.04 76 1012.0
20260508174019 75 107 16.5 35.6 0.00 0.21 0.04 76 1012.0
20260508173818 75 107 16.5 35.6 0.00 0.21 0.04 76 1012.0
20260508173618 75 107 16.5 35.6 0.00 0.21 0.04 76 1012.0
20260508173418 75 107 16.5 35.6 0.00 0.21 0.04 76 1012.0
20260508173218 75 107 16.5 35.6 0.00 0.21 0.04 76 1012.0
20260508173022 75 107 16.5 35.6 0.00 0.21 0.04 76 1012.0
20260508172818 76 107 16.5 36.5 0.00 0.21 0.04 76 1012.0
20260508172618 76 107 16.5 36.5 0.00 0.21 0.04 76 1012.0
20260508172220 76 107 16.5 36.5 0.00 0.21 0.04 76 1012.0
20260508172018 76 107 16.5 36.5 0.00 0.21 0.04 76 1012.0
20260508171819 76 107 16.5 36.5 0.00 0.21 0.04 76 1012.0
20260508171618 76 107 16.5 36.5 0.00 0.21 0.04 76 1012.0
20260508171418 76 107 16.5 35.6 0.00 0.21 0.04 76 1011.0
20260508171221 76 107 16.5 35.6 0.00 0.21 0.04 76 1011.0
20260508171019 76 107 16.5 35.6 0.00 0.21 0.04 76 1011.0
20260508170818 76 107 16.5 35.6 0.00 0.21 0.04 76 1011.0
20260508170622 76 107 16.5 35.6 0.00 0.21 0.04 76 1011.0
20260508170419 76 107 16.5 35.6 0.00 0.21 0.04 76 1011.0
20260508170022 76 107 16.5 33.9 0.00 0.21 0.04 75 1011.0
20260508165818 76 107 16.5 33.9 0.00 0.21 0.04 75 1011.0
20260508165618 76 107 16.5 33.9 0.00 0.21 0.04 75 1011.0
20260508165418 76 107 16.5 33.9 0.00 0.21 0.04 75 1011.0
20260508165218 76 107 16.5 33.9 0.00 0.21 0.04 75 1011.0
20260508165019 76 107 16.5 33.9 0.00 0.21 0.04 75 1011.0
20260508164818 76 107 16.5 33.9 0.00 0.21 0.04 75 1011.0
20260508164618 76 107 16.5 33.9 0.00 0.21 0.04 75 1011.0
20260508164418 76 108 15.6 32.2 0.00 0.21 0.04 75 1011.0
20260508164019 76 108 15.6 32.2 0.00 0.21 0.04 75 1011.0
20260508163818 76 108 15.6 32.2 0.00 0.21 0.04 75 1011.0
20260508163618 76 108 15.6 32.2 0.00 0.21 0.04 75 1011.0
20260508163418 76 108 15.6 32.2 0.00 0.21 0.04 75 1011.0
20260508163218 76 108 15.6 32.2 0.00 0.21 0.04 75 1011.0
20260508163021 76 108 15.6 32.2 0.00 0.21 0.04 75 1011.0
20260508162818 76 107 14.8 29.5 0.00 0.21 0.04 74 1011.0
20260508162618 76 107 14.8 29.5 0.00 0.21 0.04 74 1011.0
20260508162418 76 107 14.8 29.5 0.00 0.21 0.04 74 1011.0
20260508162218 76 107 14.8 29.5 0.00 0.21 0.04 74 1011.0
20260508161818 76 107 14.8 29.5 0.00 0.21 0.04 74 1011.0
20260508161618 76 107 14.8 29.5 0.00 0.21 0.04 74 1011.0
20260508161418 76 108 14.8 29.5 0.00 0.21 0.04 74 1011.0
20260508161218 76 108 14.8 29.5 0.00 0.21 0.04 74 1011.0
20260508161019 76 108 14.8 29.5 0.00 0.21 0.04 74 1011.0
20260508160818 76 108 14.8 29.5 0.00 0.21 0.04 74 1011.0
20260508160618 76 108 14.8 29.5 0.00 0.21 0.04 74 1011.0
20260508160418 76 108 14.8 29.5 0.00 0.21 0.04 74 1011.0
20260508160218 76 108 14.8 29.5 0.00 0.21 0.04 74 1011.0
20260508160023 76 108 13.9 33.9 0.00 0.21 0.04 73 1011.0
20260508155618 76 108 13.9 33.9 0.00 0.21 0.04 73 1011.0
20260508155418 76 108 13.9 33.9 0.00 0.21 0.04 73 1011.0
20260508155218 76 108 13.9 33.9 0.00 0.21 0.04 73 1011.0
20260508155019 76 108 13.9 33.9 0.00 0.21 0.04 73 1011.0
20260508154818 76 108 13.9 33.9 0.00 0.21 0.04 73 1011.0
20260508154618 76 108 13.9 33.9 0.00 0.21 0.04 73 1011.0
20260508154418 76 108 12.2 39.1 0.00 0.21 0.04 73 1011.0
20260508154218 76 108 12.2 39.1 0.00 0.21 0.04 73 1011.0
20260508154022 76 108 12.2 39.1 0.00 0.21 0.04 73 1011.0
20260508153618 76 108 12.2 39.1 0.00 0.21 0.04 73 1011.0
20260508153418 76 108 12.2 39.1 0.00 0.21 0.04 73 1011.0
20260508153218 76 108 12.2 39.1 0.00 0.21 0.04 73 1011.0
20260508153022 76 109 11.3 45.2 0.00 0.21 0.04 73 1011.0
20260508152818 76 109 11.3 45.2 0.00 0.21 0.04 73 1011.0
20260508152618 76 109 11.3 45.2 0.00 0.21 0.04 73 1011.0
20260508152418 76 109 11.3 45.2 0.00 0.21 0.04 73 1011.0
20260508152218 76 109 11.3 45.2 0.00 0.21 0.04 73 1011.0
20260508152019 76 109 11.3 45.2 0.00 0.21 0.04 73 1011.0
20260508151618 76 109 11.3 45.2 0.00 0.21 0.04 73 1011.0
20260508151418 76 109 11.3 49.5 0.00 0.21 0.04 72 1011.0
20260508151218 76 109 11.3 49.5 0.00 0.21 0.04 72 1011.0
20260508151019 76 109 11.3 49.5 0.00 0.21 0.04 72 1011.0
20260508150818 76 109 11.3 49.5 0.00 0.21 0.04 72 1011.0
20260508150618 76 109 11.3 49.5 0.00 0.21 0.04 72 1011.0
20260508150418 76 109 11.3 49.5 0.00 0.21 0.04 72 1011.0
20260508150218 76 109 11.3 49.5 0.00 0.21 0.04 72 1011.0
20260508150022 77 109 13.9 51.3 0.00 0.21 0.04 71 1011.0
20260508145819 77 109 13.9 51.3 0.00 0.21 0.04 71 1011.0
20260508145418 77 109 13.9 51.3 0.00 0.21 0.04 71 1011.0
20260508145218 77 109 13.9 51.3 0.00 0.21 0.04 71 1011.0
20260508145019 77 109 13.9 51.3 0.00 0.21 0.04 71 1011.0
20260508144818 77 109 13.9 51.3 0.00 0.21 0.04 71 1011.0
20260508144618 77 109 13.9 51.3 0.00 0.21 0.04 71 1011.0
20260508144418 77 108 17.4 51.3 0.00 0.21 0.04 70 1011.0
20260508144218 77 108 17.4 51.3 0.00 0.21 0.04 70 1011.0
20260508144019 77 108 17.4 51.3 0.00 0.21 0.04 70 1011.0
20260508143818 77 108 17.4 51.3 0.00 0.21 0.04 70 1011.0
20260508143418 77 108 17.4 51.3 0.00 0.21 0.04 70 1011.0
20260508143218 77 108 17.4 51.3 0.00 0.21 0.04 70 1011.0
20260508143022 77 108 20.0 50.4 0.00 0.21 0.04 69 1010.0
20260508142818 77 108 20.0 50.4 0.00 0.21 0.04 69 1010.0
20260508142618 77 108 20.0 50.4 0.00 0.21 0.04 69 1010.0
20260508142418 77 108 20.0 50.4 0.00 0.21 0.04 69 1010.0
20260508142218 77 108 20.0 50.4 0.00 0.21 0.04 69 1010.0
20260508142019 77 108 20.0 50.4 0.00 0.21 0.04 69 1010.0
20260508141818 77 108 20.0 50.4 0.00 0.21 0.04 69 1010.0
20260508141618 77 108 20.0 50.4 0.00 0.21 0.04 69 1010.0
20260508141218 78 106 21.7 50.4 0.00 0.21 0.04 69 1010.0
20260508141020 78 106 21.7 50.4 0.00 0.21 0.04 69 1010.0
20260508140818 78 106 21.7 50.4 0.00 0.21 0.04 69 1010.0
20260508140618 78 106 21.7 50.4 0.00 0.21 0.04 69 1010.0
20260508140418 78 106 21.7 50.4 0.00 0.21 0.04 69 1010.0
20260508140218 78 106 21.7 50.4 0.00 0.21 0.04 69 1010.0
20260508140022 78 102 20.0 48.7 0.00 0.21 0.04 68 1010.0
20260508135818 78 102 20.0 48.7 0.00 0.21 0.04 68 1010.0
20260508135618 78 102 20.0 48.7 0.00 0.21 0.04 68 1010.0
20260508133218 79 95 17.4 47.8 0.00 0.21 0.04 66 1009.0
20260508133022 79 95 17.4 47.8 0.00 0.21 0.04 66 1009.0
20260508132818 79 86 15.6 46.1 0.00 0.21 0.04 65 1009.0
20260508132618 79 86 15.6 46.1 0.00 0.21 0.04 65 1009.0
20260508132419 79 86 15.6 46.1 0.00 0.21 0.04 65 1009.0
20260508132020 79 86 15.6 46.1 0.00 0.21 0.04 65 1009.0
20260508131818 79 86 15.6 46.1 0.00 0.21 0.04 65 1009.0
20260508131618 79 86 15.6 46.1 0.00 0.21 0.04 65 1009.0
20260508131418 80 77 14.8 47.8 0.00 0.21 0.04 64 1009.0
20260508131218 80 77 14.8 47.8 0.00 0.21 0.04 64 1009.0
20260508131019 80 77 14.8 47.8 0.00 0.21 0.04 64 1009.0
20260508130818 80 77 14.8 47.8 0.00 0.21 0.04 64 1009.0
20260508130618 80 77 14.8 47.8 0.00 0.21 0.04 64 1009.0
20260508130418 80 77 14.8 47.8 0.00 0.21 0.04 64 1009.0
20260508130022 80 73 14.8 52.1 0.00 0.21 0.04 64 1009.0
20260508125818 80 73 14.8 52.1 0.00 0.21 0.04 64 1009.0
20260508125618 80 73 14.8 52.1 0.00 0.21 0.04 64 1009.0
20260508125418 80 73 14.8 52.1 0.00 0.21 0.04 64 1009.0
20260508125218 80 73 14.8 52.1 0.00 0.21 0.04 64 1009.0
20260508125019 80 73 14.8 52.1 0.00 0.21 0.04 64 1009.0
20260508124818 80 73 14.8 52.1 0.00 0.21 0.04 64 1009.0
20260508124618 80 73 14.8 52.1 0.00 0.21 0.04 64 1009.0
20260508124418 80 72 16.5 60.0 0.00 0.21 0.04 64 1008.0
20260508124020 80 72 16.5 60.0 0.00 0.21 0.04 64 1008.0
20260508123832 80 55 19.1 60.0 0.00 0.21 0.04 64 1008.0
20260508123618 80 55 19.1 60.0 0.00 0.21 0.04 64 1008.0
20260508123418 80 55 19.1 60.0 0.00 0.21 0.04 64 1008.0
20260508123218 80 55 19.1 60.0 0.00 0.21 0.04 64 1008.0
20260508123023 80 61 24.3 66.9 0.00 0.21 0.04 64 1008.0
20260508122818 80 61 24.3 66.9 0.00 0.21 0.04 64 1008.0
20260508122618 80 61 24.3 66.9 0.00 0.21 0.04 64 1008.0
20260508122418 80 61 24.3 66.9 0.00 0.21 0.04 64 1008.0
20260508122219 80 61 24.3 66.9 0.00 0.21 0.04 64 1008.0
20260508121818 80 61 24.3 59.1 0.00 0.21 0.04 64 1008.0
20260508121618 80 61 24.3 59.1 0.00 0.21 0.04 64 1008.0
20260508121418 80 60 24.3 60.0 0.00 0.21 0.04 62 1008.0
20260508121218 80 60 24.3 60.0 0.00 0.21 0.04 62 1008.0
20260508121019 80 60 24.3 60.0 0.00 0.21 0.04 62 1008.0
20260508120818 84 60 24.3 60.0 0.00 0.21 0.04 54 1008.0
20260508120618 84 60 24.3 60.0 0.00 0.21 0.04 54 1008.0
20260508120418 84 60 24.3 60.0 0.00 0.21 0.04 54 1008.0
20260508120219 84 60 24.3 60.0 0.00 0.21 0.04 54 1008.0
20260508120023 85 60 22.6 62.6 0.00 0.21 0.04 47 1007.0
20260508115620 85 60 22.6 62.6 0.00 0.21 0.04 47 1007.0
20260508115418 85 60 22.6 62.6 0.00 0.21 0.04 47 1007.0
20260508115218 85 60 22.6 62.6 0.00 0.21 0.04 47 1007.0
20260508115019 85 60 22.6 62.6 0.00 0.21 0.04 47 1007.0
20260508114818 85 60 22.6 62.6 0.00 0.21 0.04 47 1007.0
20260508114618 85 60 22.6 62.6 0.00 0.21 0.04 47 1007.0
20260508114418 86 62 20.9 66.0 0.00 0.21 0.04 45 1006.0
20260508114218 86 62 20.9 66.0 0.00 0.21 0.04 45 1006.0
20260508114019 86 62 20.9 66.0 0.00 0.21 0.04 45 1006.0
20260508113618 86 62 20.9 66.0 0.00 0.21 0.04 45 1006.0
20260508113418 86 62 20.9 66.0 0.00 0.21 0.04 45 1006.0
20260508113218 86 62 20.9 66.0 0.00 0.21 0.04 45 1006.0
20260508113022 87 65 18.2 69.5 0.00 0.21 0.04 44 1006.0
20260508112818 87 65 18.2 69.5 0.00 0.21 0.04 44 1006.0
20260508112618 87 65 18.2 69.5 0.00 0.21 0.04 44 1006.0
20260508112418 87 65 18.2 69.5 0.00 0.21 0.04 44 1006.0
20260508112218 87 65 18.2 69.5 0.00 0.21 0.04 44 1006.0
20260508112019 87 65 18.2 69.5 0.00 0.21 0.04 44 1006.0
20260508111819 87 65 18.2 69.5 0.00 0.21 0.04 44 1006.0
20260508111418 87 69 17.4 72.1 0.00 0.21 0.04 43 1006.0
20260508111218 87 69 17.4 72.1 0.00 0.21 0.04 43 1006.0
20260508111019 87 69 17.4 72.1 0.00 0.21 0.04 43 1006.0
20260508110818 87 69 17.4 72.1 0.00 0.21 0.04 43 1006.0
20260508110618 87 69 17.4 72.1 0.00 0.21 0.04 43 1006.0
20260508110418 87 69 17.4 72.1 0.00 0.21 0.04 43 1006.0
20260508110218 87 69 17.4 72.1 0.00 0.21 0.04 43 1006.0
20260508110022 87 71 20.0 73.9 0.00 0.21 0.04 43 1006.0
20260508105818 87 71 20.0 73.9 0.00 0.21 0.04 43 1006.0
20260508105418 87 71 20.0 73.9 0.00 0.21 0.04 43 1006.0
20260508105218 87 71 20.0 73.9 0.00 0.21 0.04 43 1006.0
20260508105019 87 71 20.0 73.9 0.00 0.21 0.04 43 1006.0
20260508104818 87 71 20.0 73.9 0.00 0.21 0.04 43 1006.0
20260508104618 87 71 20.0 73.9 0.00 0.21 0.04 43 1006.0
20260508104418 87 71 23.5 75.6 0.00 0.21 0.04 44 1006.0
20260508104218 87 71 23.5 75.6 0.00 0.21 0.04 44 1006.0
20260508104020 87 71 23.5 75.6 0.00 0.21 0.04 44 1006.0
20260508103818 87 71 23.5 75.6 0.00 0.21 0.04 44 1006.0
20260508103619 87 71 23.5 75.6 0.00 0.21 0.04 44 1006.0
20260508103218 87 71 23.5 75.6 0.00 0.21 0.04 44 1006.0
20260508103022 87 71 23.5 75.6 0.00 0.21 0.04 44 1006.0
20260508102818 86 72 26.9 76.5 0.00 0.21 0.04 44 1007.0
20260508102618 86 72 26.9 76.5 0.00 0.21 0.04 44 1007.0
20260508102418 86 72 26.9 76.5 0.00 0.21 0.04 44 1007.0
20260508102218 86 72 26.9 76.5 0.00 0.21 0.04 44 1007.0
20260508102019 86 72 26.9 76.5 0.00 0.21 0.04 44 1007.0
20260508101818 86 72 26.9 76.5 0.00 0.21 0.04 44 1007.0
20260508101618 86 72 26.9 76.5 0.00 0.21 0.04 44 1007.0
20260508101218 86 72 28.7 76.5 0.00 0.21 0.04 43 1007.0
20260508101019 86 72 28.7 76.5 0.00 0.21 0.04 43 1007.0
20260508100818 86 72 28.7 76.5 0.00 0.21 0.04 43 1007.0
20260508100618 86 72 28.7 76.5 0.00 0.21 0.04 43 1007.0
20260508100418 86 72 28.7 76.5 0.00 0.21 0.04 43 1007.0
20260508100218 86 72 28.7 76.5 0.00 0.21 0.04 43 1007.0
20260508100023 87 72 28.7 74.7 0.00 0.21 0.04 41 1007.0
20260508095818 87 72 28.7 74.7 0.00 0.21 0.04 41 1007.0
20260508095618 87 72 28.7 74.7 0.00 0.21 0.04 41 1007.0
20260508095419 87 72 28.7 74.7 0.00 0.21 0.04 41 1007.0
20260508095019 87 72 28.7 74.7 0.00 0.21 0.04 41 1007.0
20260508094818 87 72 28.7 74.7 0.00 0.21 0.04 41 1007.0
20260508094618 87 72 28.7 74.7 0.00 0.21 0.04 41 1007.0
20260508094418 89 72 26.1 71.3 0.00 0.21 0.04 37 1007.0
20260508094218 89 72 26.1 71.3 0.00 0.21 0.04 37 1007.0
20260508094019 89 72 26.1 71.3 0.00 0.21 0.04 37 1007.0
20260508093818 89 72 26.1 71.3 0.00 0.21 0.04 37 1007.0
20260508093618 89 72 26.1 71.3 0.00 0.21 0.04 37 1007.0
20260508093418 89 72 26.1 71.3 0.00 0.21 0.04 37 1007.0
20260508093219 89 72 26.1 71.3 0.00 0.21 0.04 37 1007.0
20260508092818 91 71 24.3 68.6 0.00 0.21 0.04 34 1007.0
20260508092618 91 71 24.3 68.6 0.00 0.21 0.04 34 1007.0
20260508092418 91 71 24.3 68.6 0.00 0.21 0.04 34 1007.0
20260508092218 91 71 24.3 68.6 0.00 0.21 0.04 34 1007.0
20260508092019 91 71 24.3 68.6 0.00 0.21 0.04 34 1007.0
20260508091818 91 71 24.3 68.6 0.00 0.21 0.04 34 1007.0
20260508091618 91 71 24.3 68.6 0.00 0.21 0.04 34 1007.0
20260508091418 92 70 22.6 66.0 0.00 0.21 0.04 32 1007.0
20260508091218 92 70 22.6 66.0 0.00 0.21 0.04 32 1007.0
20260508090818 92 70 22.6 66.0 0.00 0.21 0.04 32 1007.0
20260508090618 92 70 22.6 66.0 0.00 0.21 0.04 32 1007.0
20260508090418 92 70 22.6 66.0 0.00 0.21 0.04 32 1007.0
20260508090218 92 70 22.6 66.0 0.00 0.21 0.04 32 1007.0
20260508090023 93 69 22.6 65.2 0.00 0.21 0.04 31 1007.0
20260508085818 93 69 22.6 65.2 0.00 0.21 0.04 31 1007.0
20260508085618 93 69 22.6 65.2 0.00 0.21 0.04 31 1007.0
20260508085418 93 69 22.6 65.2 0.00 0.21 0.04 31 1007.0
20260508085218 93 69 22.6 65.2 0.00 0.21 0.04 31 1007.0
20260508085020 93 69 22.6 65.2 0.00 0.21 0.04 31 1007.0
20260508084618 93 69 22.6 65.2 0.00 0.21 0.04 31 1007.0
20260508084418 93 68 22.6 65.2 0.00 0.21 0.04 31 1007.0
20260508084218 93 68 22.6 65.2 0.00 0.21 0.04 31 1007.0
20260508084019 93 68 22.6 65.2 0.00 0.21 0.04 31 1007.0
20260508083818 93 68 22.6 65.2 0.00 0.21 0.04 31 1007.0
20260508083618 93 68 22.6 65.2 0.00 0.21 0.04 31 1007.0
20260508083418 93 68 22.6 65.2 0.00 0.21 0.04 31 1007.0
20260508083218 93 68 22.6 65.2 0.00 0.21 0.04 31 1007.0
20260508083023 92 66 23.5 66.0 0.00 0.21 0.04 32 1007.0
20260508082819 92 66 23.5 66.0 0.00 0.21 0.04 32 1007.0
20260508082418 92 66 23.5 66.0 0.00 0.21 0.04 32 1007.0
20260508082218 92 66 23.5 66.0 0.00 0.21 0.04 32 1007.0
20260508082019 92 66 23.5 66.0 0.00 0.21 0.04 32 1007.0
20260508081818 92 66 23.5 66.0 0.00 0.21 0.04 32 1007.0
20260508081618 92 66 23.5 66.0 0.00 0.21 0.04 32 1007.0
20260508081418 92 65 23.5 66.0 0.00 0.21 0.04 32 1008.0
20260508081218 92 65 23.5 66.0 0.00 0.21 0.04 32 1008.0
20260508081019 92 65 23.5 66.0 0.00 0.21 0.04 32 1008.0
20260508080818 92 65 23.5 66.0 0.00 0.21 0.04 32 1008.0
20260508080418 92 65 23.5 66.0 0.00 0.21 0.04 32 1008.0
20260508080218 92 65 23.5 66.0 0.00 0.21 0.04 32 1008.0
20260508080023 92 64 23.5 65.2 0.00 0.21 0.04 33 1008.0
20260508075818 92 64 23.5 65.2 0.00 0.21 0.04 33 1008.0
20260508075618 92 64 23.5 65.2 0.00 0.21 0.04 33 1008.0
20260508075418 92 64 23.5 65.2 0.00 0.21 0.04 33 1008.0
20260508075218 92 64 23.5 65.2 0.00 0.21 0.04 33 1008.0
20260508075019 92 64 23.5 65.2 0.00 0.21 0.04 33 1008.0
20260508074818 92 64 23.5 65.2 0.00 0.21 0.04 33 1008.0
20260508074418 91 63 22.6 64.3 0.00 0.21 0.04 33 1008.0
20260508074218 91 63 22.6 64.3 0.00 0.21 0.04 33 1008.0
20260508074019 91 63 22.6 64.3 0.00 0.21 0.04 33 1008.0
20260508073818 91 63 22.6 64.3 0.00 0.21 0.04 33 1008.0
20260508073618 91 63 22.6 64.3 0.00 0.21 0.04 33 1008.0
20260508073418 91 63 22.6 64.3 0.00 0.21 0.04 33 1008.0
20260508073218 91 63 22.6 64.3 0.00 0.21 0.04 33 1008.0
20260508073023 91 61 22.6 63.4 0.00 0.21 0.04 34 1009.0
20260508072818 91 61 22.6 63.4 0.00 0.21 0.04 34 1009.0
20260508072618 91 61 22.6 63.4 0.00 0.21 0.04 34 1009.0
20260508072218 91 61 22.6 63.4 0.00 0.21 0.04 34 1009.0
20260508072020 91 61 22.6 63.4 0.00 0.21 0.04 34 1009.0
20260508071818 91 61 22.6 63.4 0.00 0.21 0.04 34 1009.0
20260508071618 91 61 22.6 63.4 0.00 0.21 0.04 34 1009.0
20260508071418 91 61 21.7 62.6 0.00 0.21 0.04 34 1009.0
20260508071218 91 61 21.7 62.6 0.00 0.21 0.04 34 1009.0
20260508071020 91 61 21.7 62.6 0.00 0.21 0.04 34 1009.0
20260508070821 91 61 21.7 62.6 0.00 0.21 0.04 34 1009.0
20260508070618 91 61 21.7 62.6 0.00 0.21 0.04 34 1009.0
20260508070218 91 61 21.7 62.6 0.00 0.21 0.04 34 1009.0
20260508070023 90 61 20.9 62.6 0.00 0.21 0.04 35 1009.0
20260508065818 90 61 20.9 62.6 0.00 0.21 0.04 35 1009.0
20260508065618 90 61 20.9 62.6 0.00 0.21 0.04 35 1009.0
20260508065418 90 61 20.9 62.6 0.00 0.21 0.04 35 1009.0
20260508065218 90 65 20.0 62.6 0.00 0.21 0.04 35 1009.0
20260508065019 90 65 20.0 62.6 0.00 0.21 0.04 35 1009.0
20260508064818 90 65 20.0 62.6 0.00 0.21 0.04 35 1009.0
20260508064618 90 65 20.0 62.6 0.00 0.21 0.04 35 1009.0
20260508064419 90 63 20.0 60.8 0.00 0.21 0.04 36 1009.0
20260508064019 90 65 21.7 60.8 0.00 0.21 0.04 36 1009.0
20260508063818 90 65 21.7 60.8 0.00 0.21 0.04 36 1009.0
20260508063618 90 65 21.7 60.8 0.00 0.21 0.04 36 1009.0
20260508063418 90 65 21.7 63.4 0.00 0.21 0.04 36 1009.0
20260508063218 90 65 21.7 63.4 0.00 0.21 0.04 36 1009.0
20260508063023 89 66 21.7 64.3 0.00 0.21 0.04 37 1009.0
20260508062818 89 66 21.7 64.3 0.00 0.21 0.04 37 1009.0
20260508062618 89 66 21.7 64.3 0.00 0.21 0.04 37 1009.0
20260508062418 88 66 21.7 64.3 0.00 0.21 0.04 38 1009.0
20260508062019 88 66 21.7 64.3 0.00 0.00 0.06 38 1010.0
20260508061818 88 66 21.7 64.3 0.00 0.00 0.06 42 1010.0
20260508061618 88 66 21.7 64.3 0.00 0.00 0.06 42 1010.0
20260508061418 87 66 21.7 64.3 0.00 0.00 0.06 43 1010.0
20260508061218 87 66 21.7 64.3 0.00 0.00 0.06 43 1010.0
20260508061019 87 66 21.7 64.3 0.00 0.00 0.06 43 1010.0
20260508060818 87 66 21.7 64.3 0.00 0.00 0.06 43 1010.0
20260508060618 87 66 21.7 64.3 0.00 0.00 0.06 43 1010.0
20260508060419 87 66 21.7 64.3 0.00 0.00 0.06 43 1010.0
20260508060219 87 66 21.7 64.3 0.00 0.00 0.06 43 1010.0
20260508055818 87 67 21.7 64.3 0.00 0.00 0.06 44 1011.0
20260508055618 87 67 21.7 64.3 0.00 0.00 0.06 44 1011.0
20260508055418 87 67 21.7 64.3 0.00 0.00 0.06 44 1011.0
20260508055218 87 67 21.7 64.3 0.00 0.00 0.06 44 1011.0
20260508055020 87 67 21.7 64.3 0.00 0.00 0.06 44 1011.0
20260508054818 87 67 21.7 64.3 0.00 0.00 0.06 44 1011.0
20260508054618 87 67 21.7 64.3 0.00 0.00 0.06 44 1011.0
20260508054418 86 69 21.7 64.3 0.00 0.00 0.06 45 1011.0
20260508054218 86 69 21.7 64.3 0.00 0.00 0.06 45 1011.0
20260508053818 86 69 21.7 64.3 0.00 0.00 0.06 45 1011.0
20260508053618 86 69 21.7 64.3 0.00 0.00 0.06 45 1011.0
20260508053418 86 69 21.7 64.3 0.00 0.00 0.06 45 1011.0
20260508053218 86 69 21.7 64.3 0.00 0.00 0.06 45 1011.0
20260508053023 86 71 21.7 64.3 0.00 0.00 0.06 46 1011.0
20260508052818 86 71 21.7 64.3 0.00 0.00 0.06 46 1011.0
20260508052619 86 71 21.7 64.3 0.00 0.00 0.06 46 1011.0
20260508052418 86 71 21.7 64.3 0.00 0.00 0.06 46 1011.0
20260508052218 86 71 21.7 64.3 0.00 0.00 0.06 46 1011.0
20260508052019 86 71 21.7 64.3 0.00 0.00 0.06 46 1011.0
20260508051619 86 71 21.7 64.3 0.00 0.00 0.06 46 1011.0
20260508051419 85 73 20.9 62.6 0.00 0.00 0.06 47 1011.0
20260508051219 85 73 20.9 62.6 0.00 0.00 0.06 47 1011.0
20260508051020 85 73 20.9 62.6 0.00 0.00 0.06 47 1011.0
20260508050819 85 73 20.9 62.6 0.00 0.00 0.06 47 1011.0
20260508050619 85 73 20.9 62.6 0.00 0.00 0.06 47 1011.0
20260508050419 85 73 20.9 62.6 0.00 0.00 0.06 47 1011.0
20260508050219 85 73 20.9 62.6 0.00 0.00 0.06 47 1011.0
20260508050023 84 75 20.0 60.0 0.00 0.00 0.06 49 1011.0
20260508045820 84 75 20.0 60.0 0.00 0.00 0.06 49 1011.0
20260508045419 84 75 20.0 60.0 0.00 0.00 0.06 49 1011.0
20260508045218 84 75 20.0 60.0 0.00 0.00 0.06 49 1011.0
20260508045019 84 75 20.0 60.0 0.00 0.00 0.06 49 1011.0
20260508044818 84 75 20.0 60.0 0.00 0.00 0.06 49 1011.0
20260508044619 84 75 20.0 60.0 0.00 0.00 0.06 49 1011.0
20260508044418 83 74 19.1 56.5 0.00 0.00 0.06 51 1011.0
20260508044219 83 74 19.1 56.5 0.00 0.00 0.06 51 1011.0
20260508044019 83 74 19.1 56.5 0.00 0.00 0.06 51 1011.0
20260508043818 83 74 19.1 56.5 0.00 0.00 0.06 51 1011.0
20260508043418 83 74 19.1 56.5 0.00 0.00 0.06 51 1011.0
20260508043218 83 74 19.1 56.5 0.00 0.00 0.06 51 1011.0
20260508043023 83 74 19.1 56.5 0.00 0.00 0.06 51 1011.0
20260508042818 82 74 17.4 52.1 0.00 0.00 0.06 53 1011.0
20260508042618 82 74 17.4 52.1 0.00 0.00 0.06 53 1011.0
20260508042419 82 74 17.4 52.1 0.00 0.00 0.06 53 1011.0
20260508042218 82 74 17.4 52.1 0.00 0.00 0.06 53 1011.0
20260508042019 82 74 17.4 52.1 0.00 0.00 0.06 53 1011.0
20260508041818 82 74 17.4 52.1 0.00 0.00 0.06 53 1011.0
20260508041619 82 74 17.4 52.1 0.00 0.00 0.06 53 1011.0
20260508041218 82 75 16.5 47.8 0.00 0.00 0.06 56 1011.0
20260508041020 82 75 16.5 47.8 0.00 0.00 0.06 56 1011.0
20260508040818 82 75 16.5 47.8 0.00 0.00 0.06 56 1011.0
20260508040618 82 75 16.5 47.8 0.00 0.00 0.06 56 1011.0
20260508040418 82 75 16.5 47.8 0.00 0.00 0.06 56 1011.0
20260508040218 82 75 16.5 47.8 0.00 0.00 0.06 56 1011.0
20260508040023 81 77 14.8 44.3 0.00 0.00 0.06 59 1012.0
20260508035818 81 77 14.8 44.3 0.00 0.00 0.06 59 1012.0
20260508035618 81 77 14.8 44.3 0.00 0.00 0.06 59 1012.0
20260508035419 81 77 14.8 44.3 0.00 0.00 0.06 59 1012.0
20260508035019 81 77 14.8 44.3 0.00 0.00 0.06 59 1012.0
20260508034818 81 77 14.8 44.3 0.00 0.00 0.06 59 1012.0
20260508034618 81 77 14.8 44.3 0.00 0.00 0.06 59 1012.0
20260508034418 80 78 12.2 40.0 0.00 0.00 0.06 62 1012.0
20260508034218 80 78 12.2 40.0 0.00 0.00 0.06 62 1012.0
20260508034019 80 78 12.2 40.0 0.00 0.00 0.06 62 1012.0
20260508033818 80 78 12.2 40.0 0.00 0.00 0.06 62 1012.0
20260508033618 80 78 12.2 40.0 0.00 0.00 0.06 62 1012.0
20260508033418 80 78 12.2 40.0 0.00 0.00 0.06 62 1012.0
20260508033219 80 78 12.2 40.0 0.00 0.00 0.06 62 1012.0
20260508032819 79 82 10.4 36.5 0.00 0.00 0.06 66 1012.0
20260508032619 79 82 10.4 36.5 0.00 0.00 0.06 66 1012.0
20260508032419 79 82 10.4 36.5 0.00 0.00 0.06 66 1012.0
20260508032219 79 82 10.4 36.5 0.00 0.00 0.06 66 1012.0
20260508032019 79 82 10.4 36.5 0.00 0.00 0.06 66 1012.0
20260508031819 79 82 10.4 36.5 0.00 0.00 0.06 66 1012.0
20260508031619 79 82 10.4 36.5 0.00 0.00 0.06 66 1012.0
20260508031419 78 87 9.6 33.9 0.00 0.00 0.06 70 1012.0
20260508031219 78 87 9.6 33.9 0.00 0.00 0.06 70 1012.0
20260508031021 78 87 9.6 33.9 0.00 0.00 0.06 70 1012.0
20260508030619 78 87 9.6 33.9 0.00 0.00 0.06 70 1012.0
20260508030419 78 87 9.6 33.9 0.00 0.00 0.06 70 1012.0
20260508030219 78 87 9.6 33.9 0.00 0.00 0.06 70 1012.0
20260508030023 77 93 9.6 33.9 0.00 0.00 0.06 73 1012.0
20260508025819 77 93 9.6 33.9 0.00 0.00 0.06 73 1012.0
20260508025619 77 93 9.6 33.9 0.00 0.00 0.06 73 1012.0
20260508025419 77 93 9.6 33.9 0.00 0.00 0.06 73 1012.0
20260508025219 77 93 9.6 33.9 0.00 0.00 0.06 73 1012.0
20260508025020 77 93 9.6 33.9 0.00 0.00 0.06 73 1012.0
20260508024820 77 93 9.6 33.9 0.00 0.00 0.06 73 1012.0
20260508024419 76 99 10.4 33.9 0.00 0.00 0.06 76 1012.0
20260508024218 76 99 10.4 33.9 0.00 0.00 0.06 76 1012.0
20260508024019 76 99 10.4 33.9 0.00 0.00 0.06 76 1012.0
20260508023818 76 99 10.4 33.9 0.00 0.00 0.06 76 1012.0
20260508023619 76 99 10.4 33.9 0.00 0.00 0.06 76 1012.0
20260508023419 76 99 10.4 33.9 0.00 0.00 0.06 76 1012.0
20260508023218 76 99 10.4 33.9 0.00 0.00 0.06 76 1012.0
20260508023022 76 99 10.4 33.9 0.00 0.00 0.06 76 1012.0
20260508022818 75 103 11.3 34.8 0.00 0.00 0.06 79 1012.0
20260508022619 75 103 11.3 34.8 0.00 0.00 0.06 79 1012.0
20260508022218 75 103 11.3 34.8 0.00 0.00 0.06 79 1012.0
20260508022019 75 103 11.3 34.8 0.00 0.00 0.06 79 1012.0
20260508021818 75 103 11.3 34.8 0.00 0.00 0.06 79 1012.0
20260508021619 75 103 11.3 34.8 0.00 0.00 0.06 79 1012.0
20260508021418 74 106 12.2 34.8 0.00 0.00 0.06 82 1012.0
20260508021218 74 106 12.2 34.8 0.00 0.00 0.06 82 1012.0
20260508021020 74 106 12.2 34.8 0.00 0.00 0.06 82 1012.0
20260508020818 74 106 12.2 34.8 0.00 0.00 0.06 82 1012.0
20260508020619 74 106 12.2 34.8 0.00 0.00 0.06 82 1012.0
20260508020219 74 106 12.2 34.8 0.00 0.00 0.06 82 1012.0
20260508020023 74 109 12.2 33.9 0.00 0.00 0.06 84 1012.0
20260508015819 74 109 12.2 33.9 0.00 0.00 0.06 84 1012.0
20260508015619 74 109 12.2 33.9 0.00 0.00 0.06 84 1012.0
20260508015418 74 109 12.2 33.9 0.00 0.00 0.06 84 1012.0
20260508015219 74 109 12.2 33.9 0.00 0.00 0.06 84 1012.0
20260508015019 74 109 12.2 33.9 0.00 0.00 0.06 84 1012.0
20260508014819 74 109 12.2 33.9 0.00 0.00 0.06 84 1012.0
20260508014618 74 109 12.2 33.9 0.00 0.00 0.06 84 1012.0
20260508014419 73 110 12.2 33.0 0.00 0.00 0.06 86 1012.0
20260508014020 73 110 12.2 33.0 0.00 0.00 0.06 86 1012.0
20260508013819 73 110 12.2 33.0 0.00 0.00 0.06 86 1012.0